Погода в Ариэле

Израиль     32°06′19″N   35°11′31″E
темп.,
°C
ветер,
м/с
пор.,
м/с
влажн.,
%
обл.,
%
осадки,
мм/ч
давл.,
гПа
погр.,
м
7 мая, пт
пт700:00+18з33393 0.0 101537
03:00+18з33435 0.0 101422
06:00+17з33445 0.0 101417
09:00+22з453320 0.0 1015612
12:00+26з662911 0.0 10141215
15:00+26зсз98280 0.0 10141107
18:00+22зсз810400 0.0 1014558
21:00+18зсз22630 0.0 101547
8 мая, сб
сб800:00+17з12430 0.0 101511
03:00+17з22480 0.0 101511
06:00+16вюв11490 0.0 101511
09:00+23юв21290 0.0 1016381
12:00+28вюв11190 0.0 1014814
15:00+32сз34140 0.0 10121479
18:00+28сз43300 0.0 1013517
21:00+24сз12370 0.0 101414
9 мая, вс
вс900:00+23в11240 0.0 101311
03:00+23ю11225 0.0 101211
06:00+23ююв332799 0.0 101113
09:00+30ююв231765 0.0 1012281
12:00+33сз3313100 0.0 1012925
15:00+35з561192 0.0 10112059
18:00+33зсз5713100 0.0 1010568
21:00+28юз1117100 0.0 101011
10 мая, пн
пн1000:00+26зюз111983 0.0 101011
03:00+23з3329100 0.0 101037
06:00+24ююз122474 0.1 101011
09:00+30юв2216100 0.1 1010325
12:00+33ююв351391 0.0 10091937
15:00+33св241582 0.0 10081743
18:00+30сз432587 0.0 1007584
21:00+26з2233100 0.0 100812
11 мая, вт
вт1100:00+23зюз124436 0.0 100954
03:00+21з22480 0.0 100715
06:00+18з336611 0.0 100948
09:00+24зюз223926 0.1 1009440
12:00+29з233022 0.0 10081329
15:00+29з64380 0.0 10071249
18:00+23зсз77550 0.0 1007372
21:00+19зсз35710 0.0 1009225